{"data":{"norad_id":64386,"epoch":"2026-05-24T22:45:26.371296Z","epoch_age_seconds":83555,"freshness":"FRESH","line1":"1 64386U 25127S   26144.94822189  .00012819  00000+0  47439-3 0  9994","line2":"2 64386  42.9998 108.7808 0000720 254.1133 105.9639 15.27589461 54134","mean_motion":15.27589461,"eccentricity":7.2e-5,"inclination_deg":42.9998,"raan_deg":108.7808,"arg_perigee_deg":254.1133,"mean_anomaly_deg":105.9639,"bstar":0.00047439,"rev_number":5413,"period_min":94.266164880277,"perigee_km":482.5267631891,"apogee_km":483.51476990748,"semimajor_km":6861.1577665483,"source":"CELESTRAK","updated_at":"2026-05-25T13:38:20.414087Z"}}